FW4581 Weather Reports


time (UTC)temp
C
wind
direction
speed
KPH
gust
KPH
rain 1hr
cm
rain 24hr
cm
rain mn
cm
humidity
%
barometer
mb
20260505200044 26 238 4.8 12.9 0.00 0.00 0.00 40 1014.8
20260505193040 27 336 1.6 12.9 0.00 0.00 0.00 40 1015.1
20260505191539 26 186 4.8 12.9 0.00 0.00 0.00 43 1015.3
20260505190036 26 185 3.2 14.5 0.00 0.00 0.00 42 1015.4
20260505183034 27 125 1.6 17.7 0.00 0.00 0.00 41 1016.3
20260505181544 26 134 3.2 11.3 0.00 0.00 0.00 45 1016.5
20260505180032 26 147 3.2 14.5 0.00 0.00 0.00 43 1016.5
20260505173029 26 207 3.2 22.5 0.00 0.00 0.00 44 1016.2
20260505171537 26 138 4.8 14.5 0.00 0.00 0.00 45 1016.4
20260505170027 25 360 4.8 12.9 0.00 0.00 0.00 50 1016.5
20260505163025 26 230 0.0 12.9 0.00 0.00 0.00 53 1016.9
20260505161523 26 150 1.6 9.7 0.00 0.00 0.00 55 1017.0
20260505153032 24 178 3.2 8.0 0.00 0.00 0.00 59 1017.5
20260505151514 23 294 3.2 11.3 0.00 0.00 0.00 61 1017.5
20260505123046 16 355 1.6 11.3 0.00 0.00 0.00 82 1017.1
20260505121530 15 203 4.8 9.7 0.00 0.00 0.00 84 1017.0
20260505120029 15 194 1.6 8.0 0.00 0.00 0.00 85 1017.1
20260505113022 14 172 1.6 9.7 0.00 0.00 0.00 85 1016.8
20260505111531 13 196 0.0 8.0 0.00 0.00 0.00 85 1016.7
20260505101516 14 168 0.0 6.4 0.00 0.00 0.00 83 1016.4
20260505100014 14 192 1.6 9.7 0.00 0.00 0.00 82 1016.2
20260505093014 15 149 1.6 11.3 0.00 0.00 0.00 81 1015.8
20260505091515 15 185 1.6 11.3 0.00 0.00 0.00 81 1015.7
20260505090014 15 167 3.2 9.7 0.00 0.00 0.00 80 1015.8
20260505083012 15 146 0.0 6.4 0.00 0.00 0.00 79 1015.8
20260505081518 15 200 0.0 8.0 0.00 0.00 0.00 79 1015.9
20260505080011 15 187 0.0 4.8 0.00 0.00 0.00 80 1015.8
20260505073011 15 188 1.6 11.3 0.00 0.00 0.00 76 1015.6
20260505071511 16 165 1.6 11.3 0.00 0.00 0.00 75 1015.6
20260505070013 16 180 1.6 8.0 0.00 0.00 0.00 75 1015.6
20260505063009 16 178 0.0 4.8 0.00 0.00 0.00 73 1015.6
20260505061509 16 254 0.0 8.0 0.00 0.00 0.00 72 1015.7
20260505060008 16 145 3.2 12.9 0.00 0.00 0.00 71 1015.9
20260505053008 16 262 1.6 9.7 0.00 0.00 0.00 70 1016.6
20260505051508 16 183 1.6 8.0 0.00 0.00 0.00 70 1016.3
20260505041506 17 169 1.6 6.4 0.00 0.00 0.00 67 1016.3
20260505040005 17 169 1.6 8.0 0.00 0.00 0.00 67 1016.6
20260505033004 17 163 1.6 6.4 0.00 0.00 0.00 67 1016.6
20260505031504 17 142 0.0 4.8 0.00 0.00 0.00 66 1016.5
20260505030012 17 198 0.0 6.4 0.00 0.00 0.00 66 1016.6
20260505023003 15 115 1.6 9.7 0.00 0.00 0.00 71 1016.4
20260505021502 15 188 0.0 0.0 0.00 0.00 0.00 73 1016.0
20260505020002 15 188 0.0 0.0 0.00 0.00 0.00 68 1016.0
20260505013002 16 188 0.0 0.0 0.00 0.00 0.00 66 1015.8
20260505011501 16 188 0.0 0.0 0.00 0.00 0.00 62 1015.6
20260505010001 17 188 0.0 0.0 0.00 0.00 0.00 60 1015.6
20260505003102 18 188 0.0 0.0 0.00 0.00 0.00 54 1015.1
20260505001600 20 184 0.0 3.2 0.00 0.00 0.00 53 1015.0
20260505001500 20 184 0.0 3.2 0.00 0.00 0.00 52 1015.0
20260505000114 21 184 0.0 1.6 0.00 0.00 0.00 51 1014.9
20260504234700 22 184 0.0 3.2 0.00 0.00 0.00 44 1014.7
20260504233109 22 148 0.0 4.8 0.00 0.00 0.00 43 1014.5
20260504231622 23 188 0.0 8.0 0.00 0.00 0.00 41 1014.5
20260504230056 23 169 0.0 6.4 0.00 0.00 0.00 41 1014.6
20260504223056 23 157 1.6 8.0 0.00 0.00 0.00 37 1014.6
20260504221641 25 154 1.6 14.5 0.00 0.00 0.00 35 1014.6
20260504220054 25 260 0.0 9.7 0.00 0.00 0.00 35 1014.4
20260504213100 25 201 1.6 12.9 0.00 0.00 0.00 34 1014.4
20260504211552 25 133 0.0 8.0 0.00 0.00 0.00 34 1014.5
20260504210052 25 130 3.2 11.3 0.00 0.00 0.00 31 1014.6
20260504203048 25 124 1.6 8.0 0.00 0.00 0.00 34 1014.9
20260504201545 25 113 1.6 9.7 0.00 0.00 0.00 32 1015.1